This is the latest recevied weather packets stored in our database for station/object KC8SWY-15. If no packets are shown the sender has not sent any weather packets the latest 1 day(s).
| Time | Temp. | Humidity | Pressure | Rain* | Wind** | Luminosity | Snow |
|---|---|---|---|---|---|---|---|
| 1778094264 | 11.11° C | 39% | 1014.2 hPa | 0 mm | - | - | - |
| 1778093964 | 11.11° C | 39% | 1014.2 hPa | 0 mm | - | - | - |
| 1778093664 | 11.11° C | 38% | 1014.4 hPa | 0 mm | - | - | - |
| 1778093064 | 11.67° C | 41% | 1014.3 hPa | 0 mm | - | - | - |
| 1778092464 | 12.22° C | 38% | 1014.3 hPa | 0 mm | - | - | - |
| 1778092164 | 12.22° C | 38% | 1014.3 hPa | 0 mm | - | - | - |
| 1778091864 | 12.22° C | 38% | 1014.2 hPa | 0 mm | - | - | - |
| 1778091564 | 12.22° C | 39% | 1014.2 hPa | 0 mm | - | - | - |
| 1778091264 | 11.67° C | 37% | 1014.2 hPa | 0 mm | - | - | - |
| 1778090964 | 11.67° C | 40% | 1014.4 hPa | 0 mm | - | - | - |
| 1778090664 | 11.67° C | 38% | 1014.3 hPa | 0 mm | - | - | - |
| 1778090364 | 11.67° C | 40% | 1014.2 hPa | 0 mm | - | - | - |
| 1778089464 | 11.11° C | 41% | 1014.1 hPa | 0 mm | - | - | - |
| 1778089164 | 11.11° C | 40% | 1014.1 hPa | 0 mm | - | - | - |
| 1778088564 | 11.11° C | 40% | 1014.2 hPa | 0 mm | - | - | - |
| 1778088264 | 11.11° C | 40% | 1014.2 hPa | 0 mm | - | - | - |
| 1778087964 | 11.11° C | 42% | 1014.2 hPa | 0 mm | - | - | - |
| 1778087664 | 10.56° C | 41% | 1014.3 hPa | 0 mm | - | - | - |
| 1778085564 | 11.11° C | 42% | 1014.5 hPa | 0 mm | - | - | - |
| 1778084964 | 10.56° C | 42% | 1014.6 hPa | 0 mm | - | - | - |
| 1778083164 | 10° C | 44% | 1014.6 hPa | 0 mm | - | - | - |
| 1778082864 | 10° C | 43% | 1014.7 hPa | 0 mm | - | - | - |
| 1778077465 | 9.44° C | 47% | 1014.1 hPa | 0 mm | - | - | - |
| 1778077165 | 9.44° C | 47% | 1014.1 hPa | 0 mm | - | - | - |
| 1778076565 | 8.89° C | 48% | 1014.2 hPa | 0 mm | - | - | - |
* Rain latest hour (hover to see other rain measurements)
** Current wind speed in m/s (hover to see current wind gust speed)